Regional Weather Roundup
Issued by NWS Newport/Morehead, NC

Current Version | Previous Version | Graphics & Text | Print | Product List | Glossary Off
Versions: 1 2 3 4 5 6 7 8 9 10 11 12 13 14 15 16 17 18 19 20 21 22 23 24 25 26 27 28 29 30 31 32 33 34 35 36 37 38 39 40 41 42 43 44 45 46 47 48 49 50

000
ASUS42 KMHX 230925
RWRMHX
WEATHER ROUNDUP FOR EASTERN NORTH CAROLINA
NATIONAL WEATHER SERVICE NEWPORT/MOREHEAD CITY NC
500 AM EDT FRI JUN 23 2017

NOTE: "FAIR" INDICATES FEW OR NO CLOUDS BELOW 12,000 FEET
WITH NO SIGNIFICANT WEATHER AND/OR OBSTRUCTIONS TO VISIBILITY

NCZ015>017-031-032-045>047-102-103-231000-
NORTH COAST

CITY           SKY/WX    TMP DP  RH WIND       PRES   REMARKS
EDENTON        CLOUDY    78  73  85 CALM      30.00F
ELIZABETH CITY CLOUDY    76  73  91 SW7       29.99F
KITTY HAWK     CLOUDY    77  72  83 CALM      29.98F
MANTEO         PTCLDY    77  73  87 W10       30.00S

$$

NCZ045>047-081-094-103-104-231000-
CENTRAL COAST

CITY           SKY/WX    TMP DP  RH WIND       PRES   REMARKS
FRISCO         CLOUDY    80  76  87 W6        30.02S

$$

NCZ095-097-098-100-101-231000-
SOUTHERN COAST

CITY           SKY/WX    TMP DP  RH WIND       PRES   REMARKS
BEAUFORT       CLOUDY    80  79  96 SW13      30.02S
CEDAR ISLAND   NOT AVBL
JACKSONVILLE   CLOUDY    77  77 100 SW5       30.01F
PINEY ISLAND   CLOUDY   N/A N/A N/A SW6       30.01F
WILMINGTON     PTCLDY    77  76  96 SW3       30.03S


$$

NCZ011>013-027>030-043-044-078>080-089-090>093-098-231000-
COASTAL PLAIN

CITY           SKY/WX    TMP DP  RH WIND       PRES   REMARKS
AHOSKIE        LGT RAIN  72  71  97 S3        29.99F
CLINTON        CLOUDY    76  76 100 CALM      30.02F FOG
ELIZABETHTOWN  NOT AVBL
GOLDSBORO      CLOUDY    77  77 100 SW8       29.99F
GREENVILLE     LGT RAIN  77  77 100 SW5       30.02F
HAVELOCK       PTCLDY    78  75  90 SW7       30.03S
KENANSVILLE    CLOUDY    75  75 100 CALM      30.02F
KINSTON        CLOUDY    76  75  95 SW5       30.01F
NEW BERN       CLOUDY    77  76  96 SW7       30.03S
RICHLANDS      CLOUDY    76  75  97 SW7       30.02F
ROCKY MOUNT    CLOUDY    74  74 100 S7        30.00S
WASHINGTON     CLOUDY    75  74  98 SW6       30.01F
WHITEVILLE     CLOUDY    78  76  93 SW3       30.03S

$$

AMZ130-135-150-152-154-156-158-170-250-252-270-ANZ085-086-088-633-658-670-231000-
MARINE OBSERVATIONS

STATION/POSITION TIME  TEMP    WIND        PRES    WAVE   SWELL
                       AIR SEA DIR/SP/G            HT/PER HT/PER
                 (UTC) (F)     (DEG/KT/KT) (MB)    (FT/S) (FT/S)
CHESAPEAKE LIGHT NOT AVBL
64 E VA BEACH    0850   74 72  230/ 12/ 14 1015.1    3/ 9   3/ 9
DUCK             0900   79 64  250/ 12/ 15 1014.9
2 E DUCK         NOT AVBL
OREGON INLET     0900   78 79  240/ 12/ 15 1015.7
13E OREGON INLT  0848      71                N/A     3/ 8   2/ 8
HATTERAS CG      0900   78 78  240/  8/ 11 1016.3
DIAMOND BUOY     0850   80 80  260/ 12/ 14 1016.5    3/ 8   2/ 8
CAPE LOOKOUT     0900   79     230/  7/  9 1016.4
BEAUFORT LAB     0900   79 78  230/  4/  8 1015.9
30 SE NEW RVR IN 0908   79 80  250/ 12/ 17 1017.0
30 SE NEW RVR IN 0843      80                N/A     3/ 8
27 SE WRIGHTSVLE 0908   79 80  230/ 12/ 16 1016.2
5 SE WRIGHTSVLE  0908   80 79  230/ 10/ 16 1016.4
225 S CAPE HAT   0850   80 81  220/ 12/ 14 1018.6    4/ 8   3/ 8
41 SE CHARLESTON 0910   81 81  200/ 16/ 17 1016.5

$$



USA.gov is the U.S. government's official web portal to all federal, state and local government web resources and services.